Weather History for Sisseton, SD

Change the Weather History Date:

Sunday, October 14, 2012

  Actual Average Record
Temperature  
Mean Temperature 47 °F 47 °F  
Max Temperature 60 °F 58 °F 90 °F (1933)
Min Temperature 33 °F 36 °F 12 °F (1937)
Degree Days  
Heating Degree Days 18 18  
Month to date heating degree days 277 212  
Since 1 July heating degree days 524 457  
Cooling Degree Days 0 0  
Month to date cooling degree days 0 0  
Year to date cooling degree days 712 523  
Moisture  
Dew Point 32 °F    
Average Humidity 61    
Maximum Humidity 82    
Minimum Humidity 40    
Precipitation  
Precipitation 0.00 in 0.07 in 2.64 in (2013)
Month to date precipitation 0.04 1.17  
Year to date precipitation 14.48 20.45  
Snow  
Snow 0.00 in - - ()
Month to date snowfall T  
Since 1 July snowfall T  
Snow Depth 0.00 in    
Sea Level Pressure  
Sea Level Pressure 29.91 in    
Wind  
Wind Speed 12 mph (NNW)    
Max Wind Speed 22 mph    
Max Gust Speed 28 mph    
T = Trace of Precipitation, MM = Missing Value Source: NWS Daily Summary

Daily Weather History Graph

Daily Weather History Graph

Search for Another Location

Airport:

Trip Planner

Search our weather history database for the weather conditions in past years. The results will help you decide how hot, cold, wet, or windy it might be!

Date:

Astronomy

Oct. 14, 2012 Rise Set
Actual Time 7:43 AM CDT 6:43 PM CDT
Civil Twilight 7:13 AM CDT 7:12 PM CDT
Nautical Twilight 6:39 AM CDT 7:47 PM CDT
Astronomical Twilight 6:04 AM CDT 8:21 PM CDT
Moon 6:43 AM CDT (10/14) 6:02 PM CDT (10/14)
Length of Visible Light 11h 59m
Length of Day
10h 59m
Waning Crescent, 1% of the Moon is Illuminated
Oct 14
Waning Crescent
Oct 15
New
Oct 21
First Quarter
Oct 29
Full
Nov 6
Last Quarter

Hourly Weather History & Observations

Time (CDT) Temp. Windchill Dew Point Humidity Pressure Visibility Wind Dir Wind Speed Gust Speed Precip Events Conditions
12:56 AM 43.0 °F 36.8 °F 32.0 °F 65% 29.84 in - NNW 11.5 mph - N/A   Unknown
1:56 AM 43.0 °F 35.7 °F 30.9 °F 62% 29.82 in - NNW 15.0 mph - N/A   Unknown
2:56 AM 42.1 °F 34.9 °F 30.9 °F 65% 29.84 in - North 13.8 mph - N/A   Unknown
3:56 AM 42.1 °F 35.2 °F 30.9 °F 65% 29.84 in - NNW 12.7 mph - N/A   Unknown
4:56 AM 41.0 °F 32.5 °F 30.9 °F 67% 29.85 in - North 17.3 mph - N/A   Unknown
5:56 AM 39.0 °F 31.0 °F 30.0 °F 70% 29.88 in - North 13.8 mph - N/A   Unknown
6:56 AM 37.0 °F 28.5 °F 30.0 °F 76% 29.91 in - North 13.8 mph - N/A   Unknown
7:56 AM 36.0 °F 27.1 °F 30.0 °F 79% 29.93 in - NNW 13.8 mph - N/A   Unknown
8:56 AM 39.0 °F 30.3 °F 32.0 °F 76% 29.95 in - North 16.1 mph - N/A   Unknown
9:56 AM 42.1 °F 34.2 °F 32.0 °F 67% 29.96 in - NNW 16.1 mph - N/A   Unknown
10:56 AM 46.0 °F 38.8 °F 33.1 °F 61% 29.94 in - NNW 18.4 mph - N/A   Unknown
11:56 AM 51.1 °F - 33.1 °F 50% 29.93 in - NNW 19.6 mph - N/A   Unknown
12:56 PM 55.0 °F - 34.0 °F 45% 29.93 in - North 21.9 mph 27.6 mph N/A   Unknown
1:56 PM 55.9 °F - 35.1 °F 45% 29.91 in - North 16.1 mph - N/A   Unknown
2:56 PM 59.0 °F - 35.1 °F 41% 29.90 in - North 17.3 mph - N/A   Unknown
3:56 PM 59.0 °F - 35.1 °F 41% 29.90 in - North 15.0 mph - N/A   Unknown
4:56 PM 59.0 °F - 35.1 °F 41% 29.91 in - North 13.8 mph - N/A   Unknown
5:56 PM 57.0 °F - 35.1 °F 44% 29.91 in - North 10.4 mph - N/A   Unknown
6:56 PM 48.9 °F - 34.0 °F 56% 29.93 in - NNW 5.8 mph - N/A   Unknown
7:56 PM 46.0 °F 43.1 °F 33.1 °F 61% 29.95 in - NW 5.8 mph - N/A   Unknown
8:56 PM 39.9 °F - 30.9 °F 70% 29.96 in - Calm Calm - N/A   Unknown
9:56 PM 41.0 °F - 33.1 °F 73% 29.96 in - Calm Calm - N/A   Unknown
10:56 PM 37.9 °F - 30.9 °F 76% 29.96 in - Calm Calm - N/A   Unknown
11:56 PM 35.1 °F - 30.0 °F 82% 29.97 in - Calm Calm - N/A   Unknown